Time,TemperatureF,DewpointF,PressureIn,WindDirection,WindDirectionDegrees,WindSpeedMPH,WindSpeedGustMPH,Humidity,HourlyPrecipIn,Conditions,Clouds,dailyrainin,SolarRadiationWatts/m^2,SoftwareType,DateUTC
2013-10-12 00:02:00,28.0,21.0,-100.00,ESE,122,3.0,4.0,76,0.00,,,0.00,0.000000,,2013-10-12 06:02:00,
2013-10-12 00:12:00,28.0,21.0,-100.00,ESE,122,3.0,4.0,76,0.00,,,0.00,0.000000,,2013-10-12 06:12:00,
2013-10-12 00:42:00,28.0,21.0,-100.00,East,98,4.0,6.0,75,0.00,,,-99.99,0.000000,,2013-10-12 06:42:00,
2013-10-12 00:52:00,28.0,21.0,-100.00,East,98,4.0,6.0,75,0.00,,,-99.99,0.000000,,2013-10-12 06:52:00,
2013-10-12 01:02:00,28.0,21.0,-100.00,East,98,4.0,6.0,75,0.00,,,-99.99,0.000000,,2013-10-12 07:02:00,
2013-10-12 01:12:00,28.0,21.0,-100.00,East,98,4.0,6.0,75,0.00,,,-99.99,0.000000,,2013-10-12 07:12:00,
2013-10-12 01:42:00,24.0,19.0,-100.00,NNE,16,1.0,4.0,81,0.00,,,0.00,0.000000,,2013-10-12 07:42:00,
2013-10-12 01:52:00,24.0,19.0,-100.00,NNE,16,1.0,4.0,81,0.00,,,0.00,0.000000,,2013-10-12 07:52:00,
2013-10-12 02:02:00,24.0,19.0,-100.00,NNE,16,1.0,4.0,81,0.00,,,0.00,0.000000,,2013-10-12 08:02:00,
2013-10-12 02:12:00,24.0,19.0,-100.00,NNE,16,1.0,4.0,81,0.00,,,0.00,0.000000,,2013-10-12 08:12:00,
2013-10-12 02:42:00,24.0,19.0,-100.00,NE,54,1.0,4.0,82,0.00,,,0.00,0.000000,,2013-10-12 08:42:00,
2013-10-12 02:52:00,24.0,19.0,-100.00,NE,54,1.0,4.0,82,0.00,,,0.00,0.000000,,2013-10-12 08:52:00,
2013-10-12 03:02:00,24.0,19.0,-100.00,NE,54,1.0,4.0,82,0.00,,,0.00,0.000000,,2013-10-12 09:02:00,
2013-10-12 03:11:00,24.0,19.0,-100.00,NE,54,1.0,4.0,82,0.00,,,0.00,0.000000,,2013-10-12 09:11:00,
2013-10-12 03:43:00,24.0,19.0,-100.00,WNW,294,0.0,4.0,81,0.00,,,0.00,0.000000,,2013-10-12 09:43:00,
2013-10-12 03:54:00,24.0,19.0,-100.00,WNW,294,0.0,4.0,81,0.00,,,0.00,0.000000,,2013-10-12 09:54:00,
2013-10-12 04:03:00,24.0,19.0,-100.00,WNW,294,0.0,4.0,81,0.00,,,0.00,0.000000,,2013-10-12 10:03:00,
2013-10-12 04:12:00,24.0,19.0,-100.00,WNW,294,0.0,4.0,81,0.00,,,0.00,0.000000,,2013-10-12 10:12:00,
2013-10-12 04:42:00,21.0,15.0,-100.00,NNE,29,2.0,5.0,78,0.00,,,0.00,0.000000,,2013-10-12 10:42:00,
2013-10-12 04:52:00,21.0,15.0,-100.00,NNE,29,2.0,5.0,78,0.00,,,0.00,0.000000,,2013-10-12 10:52:00,
2013-10-12 05:02:00,21.0,15.0,-100.00,NNE,29,2.0,5.0,78,0.00,,,0.00,0.000000,,2013-10-12 11:02:00,
2013-10-12 05:12:00,21.0,15.0,-100.00,NNE,29,2.0,5.0,78,0.00,,,0.00,0.000000,,2013-10-12 11:12:00,
2013-10-12 05:42:00,21.0,17.0,-100.00,NE,49,0.0,2.0,86,0.00,,,0.00,0.000000,,2013-10-12 11:42:00,
2013-10-12 05:52:00,21.0,17.0,-100.00,NE,49,0.0,2.0,86,0.00,,,0.00,0.000000,,2013-10-12 11:52:00,
2013-10-12 06:01:00,21.0,17.0,-100.00,NE,49,0.0,2.0,86,0.00,,,0.00,0.000000,,2013-10-12 12:01:00,
2013-10-12 06:11:00,21.0,17.0,-100.00,NE,49,0.0,2.0,86,0.00,,,0.00,0.000000,,2013-10-12 12:11:00,
2013-10-12 06:42:00,23.0,20.0,-100.00,South,173,0.0,4.0,88,0.00,,,0.00,0.000000,,2013-10-12 12:42:00,
2013-10-12 06:52:00,23.0,20.0,-100.00,South,173,0.0,4.0,88,0.00,,,0.00,0.000000,,2013-10-12 12:52:00,
2013-10-12 07:01:00,23.0,20.0,-100.00,South,173,0.0,4.0,88,0.00,,,0.00,0.000000,,2013-10-12 13:01:00,
2013-10-12 07:11:00,23.0,20.0,-100.00,South,173,0.0,4.0,88,0.00,,,0.00,0.000000,,2013-10-12 13:11:00,
2013-10-12 07:42:00,23.0,20.0,-100.00,North,357,1.0,2.0,87,0.00,,,0.00,0.000000,,2013-10-12 13:42:00,
2013-10-12 07:52:00,23.0,20.0,-100.00,North,357,1.0,2.0,87,0.00,,,0.00,0.000000,,2013-10-12 13:52:00,
2013-10-12 08:02:00,23.0,20.0,-100.00,North,357,1.0,2.0,87,0.00,,,0.00,0.000000,,2013-10-12 14:02:00,
2013-10-12 08:12:00,23.0,20.0,-100.00,North,357,1.0,2.0,87,0.00,,,0.00,0.000000,,2013-10-12 14:12:00,
2013-10-12 08:42:00,23.0,20.0,-100.00,WNW,290,0.0,2.0,87,0.00,,,0.00,5.000000,,2013-10-12 14:42:00,
2013-10-12 08:52:00,23.0,20.0,-100.00,WNW,290,0.0,2.0,87,0.00,,,0.00,5.000000,,2013-10-12 14:52:00,
2013-10-12 09:02:00,23.0,20.0,-100.00,WNW,290,0.0,2.0,87,0.00,,,0.00,5.000000,,2013-10-12 15:02:00,
2013-10-12 09:11:00,23.0,20.0,-100.00,WNW,290,0.0,2.0,87,0.00,,,0.00,5.000000,,2013-10-12 15:11:00,
2013-10-12 09:44:00,26.0,22.0,-100.00,SW,222,0.0,2.0,84,0.00,,,0.00,85.000000,,2013-10-12 15:44:00,
2013-10-12 09:53:00,26.0,22.0,-100.00,SW,222,0.0,2.0,84,0.00,,,0.00,85.000000,,2013-10-12 15:53:00,
2013-10-12 10:03:00,26.0,22.0,-100.00,SW,222,0.0,2.0,84,0.00,,,0.00,85.000000,,2013-10-12 16:03:00,
2013-10-12 10:13:00,26.0,22.0,-100.00,SW,222,0.0,2.0,84,0.00,,,0.00,85.000000,,2013-10-12 16:13:00,
2013-10-12 10:43:00,31.0,26.0,-100.00,WSW,247,1.0,4.0,80,0.00,,,0.00,220.000000,,2013-10-12 16:43:00,
2013-10-12 10:53:00,31.0,26.0,-100.00,WSW,247,1.0,4.0,80,0.00,,,0.00,220.000000,,2013-10-12 16:53:00,
2013-10-12 11:03:00,31.0,26.0,-100.00,WSW,247,1.0,4.0,80,0.00,,,0.00,220.000000,,2013-10-12 17:03:00,
2013-10-12 11:13:00,31.0,26.0,-100.00,WSW,247,1.0,4.0,80,0.00,,,0.00,220.000000,,2013-10-12 17:13:00,
2013-10-12 11:42:00,34.0,26.0,-100.00,WNW,283,2.0,4.0,72,0.00,,,0.00,265.000000,,2013-10-12 17:42:00,
2013-10-12 11:53:00,34.0,26.0,-100.00,WNW,283,2.0,4.0,72,0.00,,,0.00,265.000000,,2013-10-12 17:53:00,
2013-10-12 12:02:00,34.0,26.0,-100.00,WNW,283,2.0,4.0,72,0.00,,,0.00,265.000000,,2013-10-12 18:02:00,
2013-10-12 12:12:00,34.0,26.0,-100.00,WNW,283,2.0,4.0,72,0.00,,,0.00,265.000000,,2013-10-12 18:12:00,
2013-10-12 12:42:00,39.0,27.0,-100.00,West,280,3.0,5.0,63,0.00,,,0.00,367.000000,,2013-10-12 18:42:00,
2013-10-12 12:52:00,39.0,27.0,-100.00,West,280,3.0,5.0,63,0.00,,,0.00,367.000000,,2013-10-12 18:52:00,
2013-10-12 13:01:00,39.0,27.0,-100.00,West,280,3.0,5.0,63,0.00,,,0.00,367.000000,,2013-10-12 19:01:00,
2013-10-12 13:11:00,39.0,27.0,-100.00,West,280,3.0,5.0,63,0.00,,,0.00,367.000000,,2013-10-12 19:11:00,
2013-10-12 13:42:00,43.0,25.0,-100.00,NW,314,3.0,6.0,49,0.00,,,0.00,461.000000,,2013-10-12 19:42:00,
2013-10-12 13:52:00,43.0,25.0,-100.00,NW,314,3.0,6.0,49,0.00,,,0.00,461.000000,,2013-10-12 19:52:00,
2013-10-12 14:03:00,43.0,25.0,-100.00,NW,314,3.0,6.0,49,0.00,,,0.00,461.000000,,2013-10-12 20:03:00,
2013-10-12 14:12:00,43.0,25.0,-100.00,NW,314,3.0,6.0,49,0.00,,,0.00,461.000000,,2013-10-12 20:12:00,
2013-10-12 14:43:00,47.0,26.0,-100.00,NW,307,2.0,6.0,44,0.00,,,0.00,432.000000,,2013-10-12 20:43:00,
2013-10-12 14:52:00,47.0,26.0,-100.00,NW,307,2.0,6.0,44,0.00,,,0.00,432.000000,,2013-10-12 20:52:00,
2013-10-12 15:02:00,47.0,26.0,-100.00,NW,307,2.0,6.0,44,0.00,,,0.00,432.000000,,2013-10-12 21:02:00,
2013-10-12 15:11:00,47.0,26.0,-100.00,NW,307,2.0,6.0,44,0.00,,,0.00,432.000000,,2013-10-12 21:11:00,
2013-10-12 15:43:00,47.0,24.0,-100.00,NW,313,4.0,9.0,40,0.00,,,0.00,499.000000,,2013-10-12 21:43:00,
2013-10-12 15:54:00,47.0,24.0,-100.00,NW,313,4.0,9.0,40,0.00,,,0.00,499.000000,,2013-10-12 21:54:00,
2013-10-12 16:04:00,47.0,24.0,-100.00,NW,313,4.0,9.0,40,0.00,,,0.00,499.000000,,2013-10-12 22:04:00,
2013-10-12 16:13:00,47.0,24.0,-100.00,NW,313,4.0,9.0,40,0.00,,,0.00,499.000000,,2013-10-12 22:13:00,
2013-10-12 16:43:00,46.0,25.0,-100.00,NNW,331,5.0,10.0,43,0.00,,,0.00,272.000000,,2013-10-12 22:43:00,
2013-10-12 16:54:00,46.0,25.0,-100.00,NNW,331,5.0,10.0,43,0.00,,,0.00,272.000000,,2013-10-12 22:54:00,
2013-10-12 17:02:00,46.0,25.0,-100.00,NNW,331,5.0,10.0,43,0.00,,,0.00,272.000000,,2013-10-12 23:02:00,
2013-10-12 17:12:00,46.0,25.0,-100.00,NNW,331,5.0,10.0,43,0.00,,,0.00,272.000000,,2013-10-12 23:12:00,
2013-10-12 17:42:00,47.0,26.0,-100.00,NW,325,6.0,12.0,43,0.00,,,0.00,204.000000,,2013-10-12 23:42:00,
2013-10-12 17:52:00,47.0,26.0,-100.00,NW,325,6.0,12.0,43,0.00,,,0.00,204.000000,,2013-10-12 23:52:00,
2013-10-12 18:01:00,47.0,26.0,-100.00,NW,325,6.0,12.0,43,0.00,,,0.00,204.000000,,2013-10-13 00:01:00,
2013-10-12 18:11:00,47.0,26.0,-100.00,NW,325,6.0,12.0,43,0.00,,,0.00,204.000000,,2013-10-13 00:11:00,
2013-10-12 18:42:00,43.0,24.0,-100.00,NNW,335,4.0,11.0,47,0.00,,,0.00,96.000000,,2013-10-13 00:42:00,
2013-10-12 18:52:00,43.0,24.0,-100.00,NNW,335,4.0,11.0,47,0.00,,,0.00,96.000000,,2013-10-13 00:52:00,
2013-10-12 19:01:00,43.0,24.0,-100.00,NNW,335,4.0,11.0,47,0.00,,,0.00,96.000000,,2013-10-13 01:01:00,
2013-10-12 19:12:00,43.0,24.0,-100.00,NNW,335,4.0,11.0,47,0.00,,,0.00,96.000000,,2013-10-13 01:12:00,
2013-10-12 19:42:00,38.0,23.0,-100.00,SW,217,2.0,5.0,55,0.00,,,0.00,8.000000,,2013-10-13 01:42:00,
2013-10-12 19:52:00,38.0,23.0,-100.00,SW,217,2.0,5.0,55,0.00,,,0.00,8.000000,,2013-10-13 01:52:00,
2013-10-12 20:02:00,38.0,23.0,-100.00,SW,217,2.0,5.0,55,0.00,,,0.00,8.000000,,2013-10-13 02:02:00,
2013-10-12 20:11:00,38.0,23.0,-100.00,SW,217,2.0,5.0,55,0.00,,,0.00,8.000000,,2013-10-13 02:11:00,
2013-10-12 20:43:00,36.0,25.0,-100.00,ESE,120,5.0,6.0,64,0.00,,,0.00,0.000000,,2013-10-13 02:43:00,
2013-10-12 20:52:00,36.0,25.0,-100.00,ESE,120,5.0,6.0,64,0.00,,,0.00,0.000000,,2013-10-13 02:52:00,
2013-10-12 21:02:00,36.0,25.0,-100.00,ESE,120,5.0,6.0,64,0.00,,,0.00,0.000000,,2013-10-13 03:02:00,
2013-10-12 21:11:00,36.0,25.0,-100.00,ESE,120,5.0,6.0,64,0.00,,,0.00,0.000000,,2013-10-13 03:11:00,
2013-10-12 21:45:00,36.0,26.0,-100.00,ESE,109,6.0,7.0,67,0.00,,,0.00,0.000000,,2013-10-13 03:45:00,
2013-10-12 21:54:00,36.0,26.0,-100.00,ESE,109,6.0,7.0,67,0.00,,,0.00,0.000000,,2013-10-13 03:54:00,
2013-10-12 22:02:00,-999.0,-99.9,-100.00,ESE,109,6.0,7.0,-999,-99.99,,,-99.99,0.000000,,2013-10-13 04:02:00,
2013-10-12 22:13:00,36.0,26.0,-100.00,ESE,109,6.0,7.0,67,0.00,,,0.00,0.000000,,2013-10-13 04:13:00,
2013-10-12 22:43:00,35.0,25.0,-100.00,ESE,118,3.0,7.0,67,0.00,,,0.00,0.000000,,2013-10-13 04:43:00,
2013-10-12 22:54:00,35.0,25.0,-100.00,ESE,118,3.0,7.0,67,0.00,,,0.00,0.000000,,2013-10-13 04:54:00,
2013-10-12 23:03:00,35.0,25.0,-100.00,ESE,118,3.0,7.0,67,0.00,,,0.00,0.000000,,2013-10-13 05:03:00,
2013-10-12 23:12:00,35.0,25.0,-100.00,ESE,118,3.0,7.0,67,0.00,,,0.00,0.000000,,2013-10-13 05:12:00,
2013-10-12 23:43:00,34.0,26.0,-100.00,SE,126,1.0,5.0,73,0.00,,,0.00,0.000000,,2013-10-13 05:43:00,
2013-10-12 23:52:00,34.0,26.0,-100.00,SE,126,1.0,5.0,73,0.00,,,0.00,0.000000,,2013-10-13 05:52:00,